Santa Ana, CA

1:10 AM PDT on April 29, 2017 (GMT -0700)
John Wayne-Orange County

Weather History for KSNA - February, 2013

Change the Weather History Date:

Friday, February 22, 2013

  Actual Average Record
Temperature  
Mean Temperature 52 °F 58 °F  
Max Temperature 62 °F 66 °F 88 °F (2002)
Min Temperature 41 °F 49 °F 41 °F (2013)
Degree Days  
Heating Degree Days 13 7  
Month to date heating degree days 214 173  
Since 1 July heating degree days 819 865  
Cooling Degree Days 0 0  
Month to date cooling degree days 0 0  
Year to date cooling degree days 0 5  
Growing Degree Days 2 (Base 50)    
Moisture  
Dew Point 42 °F    
Average Humidity 67    
Maximum Humidity 83    
Minimum Humidity 51    
Precipitation  
Precipitation 0.00 in 0.13 in 1.12 in (2005)
Month to date precipitation 0.30 2.24  
Year to date precipitation 1.61 5.15  
Since 1 July precipitation 4.63  
Sea Level Pressure  
Sea Level Pressure 30.16 in    
Wind  
Wind Speed 4 mph (SSW)    
Max Wind Speed 14 mph    
Max Gust Speed 17 mph    
Visibility 10 miles    
Events      
T = Trace of Precipitation, MM = Missing Value Source: NWS Daily Summary

Daily Weather History Graph

Daily Weather History Graph

Search for Another Location

Airport or City:

Trip Planner

Search our weather history database for the weather conditions in past years. The results will help you decide how hot, cold, wet, or windy it might be!

Date:

Astronomy

Feb. 22, 2013 Rise Set
Actual Time 6:27 AM PST 5:42 PM PST
Civil Twilight 6:02 AM PST 6:07 PM PST
Nautical Twilight 5:33 AM PST 6:36 PM PST
Astronomical Twilight 5:04 AM PST 7:05 PM PST
Moon 3:03 PM PST (2/22) 4:10 AM PST (2/22)
Length of Visible Light 12h 05m
Length of Day
11h 14m
Waxing Gibbous, 91% of the Moon is Illuminated
Feb 22
Waxing Gibbous
Feb 25
Full
Mar 4
Last Quarter
Mar 11
New
Mar 19
First Quarter

Hourly Weather History & Observations

Time (PST) Temp. Windchill Dew Point Humidity Pressure Visibility Wind Dir Wind Speed Gust Speed Precip Events Conditions
12:53 AM 46.9 °F - 41.0 °F 80% 30.11 in 10.0 mi NNE 3.5 mph - N/A   Clear
1:53 AM 45.0 °F 43.5 °F 39.0 °F 80% 30.12 in 10.0 mi NNE 3.5 mph - N/A   Clear
2:53 AM 45.0 °F - 39.0 °F 80% 30.11 in 10.0 mi Calm Calm - N/A   Clear
3:53 AM 44.1 °F 42.5 °F 37.9 °F 79% 30.11 in 10.0 mi NNE 3.5 mph - N/A   Clear
4:53 AM 43.0 °F - 37.0 °F 80% 30.13 in 10.0 mi Calm Calm - N/A   Clear
5:53 AM 43.0 °F - 35.1 °F 74% 30.14 in 10.0 mi Calm Calm - N/A   Partly Cloudy
6:53 AM 44.1 °F - 35.1 °F 71% 30.16 in 10.0 mi Calm Calm - N/A   Scattered Clouds
7:53 AM 48.9 °F - 37.9 °F 66% 30.19 in 10.0 mi Calm Calm - N/A   Partly Cloudy
8:53 AM 54.0 °F - 39.9 °F 59% 30.20 in 10.0 mi Calm Calm - N/A   Partly Cloudy
9:53 AM 57.0 °F - 42.1 °F 57% 30.20 in 10.0 mi Variable 3.5 mph - N/A   Partly Cloudy
10:53 AM 60.1 °F - 43.0 °F 53% 30.20 in 10.0 mi SSW 6.9 mph - N/A   Partly Cloudy
11:53 AM 60.1 °F - 45.0 °F 57% 30.18 in 10.0 mi SSW 6.9 mph - N/A   Scattered Clouds
12:53 PM 61.0 °F - 44.1 °F 54% 30.16 in 10.0 mi SSW 9.2 mph - N/A   Scattered Clouds
1:53 PM 61.0 °F - 46.0 °F 58% 30.14 in 10.0 mi SSW 9.2 mph - N/A   Partly Cloudy
2:53 PM 61.0 °F - 45.0 °F 56% 30.14 in 10.0 mi SSW 11.5 mph - N/A   Scattered Clouds
3:53 PM 60.1 °F - 39.9 °F 47% 30.14 in 10.0 mi SW 8.1 mph - N/A   Partly Cloudy
4:53 PM 57.9 °F - 43.0 °F 58% 30.14 in 10.0 mi SSW 9.2 mph - N/A   Clear
5:53 PM 55.9 °F - 45.0 °F 67% 30.15 in 10.0 mi SSW 4.6 mph - N/A   Partly Cloudy
6:53 PM 55.9 °F - 46.0 °F 69% 30.16 in 10.0 mi Calm Calm - N/A   Clear
7:53 PM 54.0 °F - 45.0 °F 72% 30.16 in 10.0 mi Calm Calm - N/A   Clear
8:53 PM 54.0 °F - 46.9 °F 77% 30.17 in 10.0 mi Calm Calm - N/A   Clear
9:53 PM 52.0 °F - 46.0 °F 80% 30.18 in 10.0 mi Calm Calm - N/A   Clear
10:53 PM 51.1 °F - 43.0 °F 74% 30.18 in 10.0 mi Calm Calm - N/A   Clear
11:53 PM 48.0 °F - 41.0 °F 77% 30.17 in 10.0 mi Calm Calm - N/A   Clear